User: anonymous   Login
Location: Unspecified
(0.0000°N, 0.0000°E)
Time: 21:47:59
(UTC+00:00)
Language:

M-CUBED/EXP-1 PRIME - Orbit

View from above orbital plane
View from above orbital plane
View from above satellite
View from above satellite

Ground track
Ground track

The orbit data is extracted from the following two-line orbital elements,

1 37855U 11061F   18344.15355575  .00001121  00000-0  64667-4 0  9991
2 37855 101.7242 136.7969 0174971 281.2462  76.9130 15.04923956388113
Epoch (UTC): 10 December 2018 03:41:07
Eccentricity: 0.0174971
inclination: 101.7242°
perigee height: 430 km
apogee height: 673 km
right ascension of ascending node: 136.7969°
argument of perigee: 281.2462°
revolutions per day: 15.04923956
mean anomaly at epoch: 76.9130°
orbit number at epoch: 38811

The dashed part of the orbit path shows where the satellite is in the earth's shadow,  

DLR